Location: *
(45.0500°N, 12.0500°E)
Time: 13:56:41
(UTC+00:00)

Spot 2 Rocket - Pass Details

Date: 09 April 2020
Orbit: 757 x 773 km, 98.6° (Epoch: 25 May)

Event Time Altitude Azimuth Distance (km) Brightness Sun altitude
Exits shadow 20:22:14 56° 189° (S) 912 3.6 -24.6°
Maximum altitude 20:23:16 76° 257° (WSW) 800 3.5 -24.7°
Drops below altitude 10° 20:28:23 10° 343° (NNW) 2,322 6.8 -25.3°
Sets 20:30:43 0° 345° (NNW) 3,252 7.7 -25.6°
